User: anonymous   Login
Location: Unspecified
(0.0000°N, 0.0000°E)
Time: 00:06:41
(UTC+00:00)
Language:

STARLINK-33805 - Orbit

View from above orbital plane
View from above orbital plane
View from above satellite
View from above satellite

Ground track
Ground track

The orbit is defined by the following mean orbital elements,

1 63590U          26145.56787502 +.00000000 +00000-0 +67673-3 0 00006
2 63590  42.9988 247.8848 0000690 262.6806  97.3968 15.27579356    03
Epoch (UTC): 25 May 2026 13:37:44
Eccentricity: 0.0000690
inclination: 42.9988°
perigee height: 483 km
apogee height: 484 km
right ascension of ascending node: 247.8848°
argument of perigee: 262.6806°
revolutions per day: 15.27579356
mean anomaly at epoch: 97.3968°

The dashed part of the orbit path shows where the satellite is in the earth's shadow,  

DLR